Regional Weather Roundup
Issued by NWS Little Rock, AR

Home | Current Version | Previous Version | Text Only | Print | Product List | Glossary On
Versions: 1 2 3 4 5 6 7 8 9 10 11 12 13 14 15 16 17 18 19 20 21 22 23 24 25 26 27
000
ASUS44 KLZK 251405
RWRLZK

WEATHER ROUNDUP FOR ARKANSAS
NATIONAL WEATHER SERVICE LITTLE ROCK AR
900 AM CDT MON JUL 25 2016

NOTE: "FAIR" INDICATES FEW OR NO CLOUDS BELOW 12,000 FEET WITH NO
SIGNIFICANT WEATHER AND/OR OBSTRUCTIONS TO VISIBILITY.

ARZ001-003-010-029-251500-
NORTHWEST ARKANSAS

CITY           SKY/WX    TMP DP  RH WIND       PRES   REMARKS
FAYETTEVILLE   PTSUNNY   79  73  82 S6        30.04R
FORT SMITH     SUNNY     82  71  69 E3        30.00R HX  86
HARRISON       MOSUNNY   80  72  76 NW3       30.06R
BENTONVILLE    MOSUNNY   77  70  78 NE6       30.07R
ROGERS         PTSUNNY   76  71  85 N3        30.07R
SILOAM SPGS    SUNNY     82  66  57 SW8       30.05R HX  85
HIGHFILL       SUNNY     81  74  79 S3        30.03S HX  86
SPRINGDALE     MOSUNNY   81  72  74 SE5       30.06R
$$

ARZ004-005-016-251500-
NORTH CENTRAL ARKANSAS

CITY           SKY/WX    TMP DP  RH WIND       PRES   REMARKS
BATESVILLE     CLOUDY    81  72  74 CALM      30.01R
FLIPPIN        CLOUDY    81  72  74 N8        30.01R
MTN HOME       CLOUDY    77  73  87 VRB5      30.04R
$$

ARZ040-041-251500-
WEST CENTRAL ARKANSAS

CITY           SKY/WX    TMP DP  RH WIND       PRES   REMARKS
MENA           SUNNY     82  73  74 CALM      30.04R HX  88
MOUNT IDA      SUNNY     81  74  79 CALM      30.01R HX  86
$$

ARZ009-017-025-026-028-251500-
NORTHEAST ARKANSAS

CITY           SKY/WX    TMP DP  RH WIND       PRES   REMARKS
CORNING          N/A     82  77  83 S5        30.01R HX  91
JONESBORO      PTSUNNY   84  76  76 S6        30.00R HX  93
NEWPORT        CLOUDY    84  77  80 S8        30.01R HX  93
WALNUT RIDGE   MOSUNNY   84  75  74 S7        29.99R HX  92
BLYTHEVILLE    MOSUNNY   83  77  82 S8        30.01R HX  92
NW BLYTHEVILLE PTSUNNY   86  79  79 S5        29.99R HX  99
$$

ARZ022-023-033-042-044-251500-
CENTRAL ARKANSAS

CITY           SKY/WX    TMP DP  RH WIND       PRES   REMARKS
LITTLE ROCK    MOSUNNY   84  71  65 SW6       30.00S HX  89
N LITTLE ROCK    N/A     82  72  72 SW5       29.98R HX  86
JACKSONVILLE   SUNNY     83  73  72 S2        30.00R HX  88
SEARCY         SUNNY     82  74  76 S3        30.01R HX  88
HOT SPRINGS    SUNNY     79  73  82 CALM      30.02R
RUSSELLVILLE   CLOUDY    78  71  79 CALM      30.01R
$$

ARZ036-251500-
EAST ARKANSAS

CITY           SKY/WX    TMP DP  RH WIND       PRES   REMARKS
WEST MEMPHIS   MOSUNNY   82  78  88 SW5       30.00R HX  91
$$

ARZ050-053-066-070-073-251500-
SOUTHWEST ARKANSAS

CITY           SKY/WX    TMP DP  RH WIND       PRES   REMARKS
CAMDEN         SUNNY     82  72  69 CALM      30.00S HX  87
TEXARKANA      PTSUNNY   80  72  76 VRB3      30.00S
EL DORADO      SUNNY     79  72  79 CALM      30.01F
DE QUEEN       SUNNY     80  76  87 CALM      29.98S HX  86
$$

ARZ056-057-069-251500-
SOUTHEAST ARKANSAS

CITY           SKY/WX    TMP DP  RH WIND       PRES   REMARKS
PINE BLUFF     MOSUNNY   81  71  71 W3        30.01R HX  85
STUTTGART      SUNNY     82  73  74 S6        30.01R HX  88
MONTICELLO     SUNNY     82  73  74 S5        30.01S HX  87

$$






USA.gov is the U.S. government's official web portal to all federal, state and local government web resources and services.